Starlink 32330

operational
NORAD ID: 61850 Int'l Des: 2024-202 Owner: SPXS Country: US Constellation: starlink
LEOCIRCULAR

About Starlink 32330

Description loading...

Live Position

Loading 3D Globe...

Upcoming Passes

Altitude History

Altitude vs Time

uPlot chart will show altitude changes over time

Two-Line Element Set

1 61850U 24202F 25258.40061196 .00000780 00000-0 37879-4 0 9992
2 61850 43.0009 147.5718 0001290 274.8215 85.2489 15.27582672 48533
Epoch: Sep 15, 2025 • Age: 23 hours

Current Status

Altitude 495.5 km
Velocity 7.62 km/s
Sub-Earth Point -43.07°S, 70.59°W
Launch Date Nov 7, 2024
Age 0.8 years
Type internet

Technical Details

Classification Payload
Mass 730.00 kg
Dry Mass 700.00 kg
Total Mass 730.00 kg
Length 0.30 m
Diameter 4.10 m
Span 29.00 m
Shape Box + pan
Manufacturer SPXS
Bus Type Starlink V2M
Phase Status In Orbit
Owner/State SPXS/US

Large Constellations

Loading constellations...